Temperature
18 18 18 18 17 17 17 17 16 16 16 16 16 16 15 15 15 15 15 14 14 14 14 14 14 14 14 14 14 14 14 14 13 13 13 13 13 13 13 14 14 14 14
18 18 18 18 17 17 17 17 16 16 16 16 16 15 15 15 15 15 15 14 14 14 14 14 14 14 14 14 13 13 13 13 13 13 13 13 13 13 13 13 13 13 14
18 18 18 18 17 17 17 17 16 16 16 16 15 15 15 15 15 15 14 14 14 14 14 14 14 13 13 13 13 13 13 13 13 13 13 13 13 13 13 13 13 13 13
18 18 18 18 17 17 17 17 16 16 16 15 15 15 15 15 15 15 14 14 14 14 14 13 13 13 13 13 13 13 13 13 12 12 12 12 12 12 12 12 13 13 13
18 18 18 18 17 17 17 16 16 16 15 15 15 15 15 15 15 15 14 14 14 13 13 13 13 13 13 13 13 13 12 12 12 12 12 12 12 12 12 12 12 12 13
18 18 18 17 17 17 16 16 16 15 15 15 15 15 15 15 14 14 14 14 13 13 13 13 13 13 13 12 12 12 12 12 12 11 11 11 11 11 11 11 11 11 12
18 18 18 17 17 17 16 16 16 15 15 15 14 14 14 14 14 14 14 14 13 13 12 12 12 12 12 12 12 12 12 12 11 11 11 11 11 11 11 11 11 11 11
18 18 18 17 17 16 16 16 15 15 15 15 14 14 14 14 14 14 13 13 13 13 12 12 12 12 12 12 12 12 12 11 11 11 11 11 11 11 10 10 10 10 10
18 18 18 17 17 16 16 16 15 15 15 14 14 14 14 14 13 13 13 13 13 12 12 12 12 12 12 12 12 11 11 11 11 11 11 11 11 10 10 10 10 10 10
18 18 18 17 17 16 16 15 15 15 14 14 14 13 13 13 13 13 13 12 12 12 12 11 11 11 11 11 11 11 11 11 10 10 10 10 10 10 10 10 9 9 9
18 18 17 17 17 16 16 15 15 14 14 14 13 13 13 13 13 13 12 12 12 12 11 11 11 11 11 11 11 11 10 10 10 10 10 10 10 9 9 9 9 9 9
18 17 17 17 16 16 16 15 15 14 14 13 13 13 13 13 12 12 12 12 12 12 11 11 11 11 11 11 10 10 10 10 10 10 9 9 9 9 9 9 9 8 8
17 17 17 16 16 16 16 15 14 14 14 13 13 12 12 12 12 12 12 12 12 11 11 11 11 11 11 10 10 10 10 10 9 9 9 9 9 8 8 8 8 8 8
17 17 16 16 16 15 15 15 14 14 14 13 13 12 12 12 12 12 12 12 11 11 11 11 11 10 10 10 10 10 9 9 9 9 8 8 8 8 8 7 7 7 7
17 16 16 16 15 15 15 14 14 14 14 14 13 13 12 12 12 12 11 11 11 11 10 10 10 10 10 10 9 9 9 9 8 8 8 8 8 7 7 7 7 7 6
16 16 16 15 15 15 14 14 14 14 13 13 13 12 12 12 11 11 11 11 10 10 10 10 10 9 9 9 9 8 8 8 8 8 7 7 7 7 7 6 6 6 6
16 16 15 15 15 15 14 14 14 13 13 13 13 12 12 12 11 11 11 10 10 10 10 9 9 9 9 8 8 8 8 7 7 7 7 7 7 6 6 6 6 5 5
16 16 15 15 15 14 14 14 13 13 13 13 13 12 12 11 11 11 10 10 10 9 9 9 9 9 8 8 8 8 7 7 7 6 6 6 6 6 6 5 5 5 5
15 15 15 15 14 14 14 13 13 13 13 13 12 12 12 11 11 10 10 10 9 9 9 9 9 8 8 8 7 7 7 6 6 6 6 5 5 5 5 5 4 4 4
15 15 14 14 14 14 13 13 12 12 12 12 12 12 11 11 10 10 10 9 9 9 9 8 8 8 7 7 7 7 6 6 6 5 5 5 5 4 4 4 4 3 3
15 14 14 14 13 13 13 13 12 12 12 11 11 11 11 11 10 10 10 9 9 9 8 8 8 7 7 7 6 6 6 5 5 5 5 4 4 4 3 3 3 3 2
14 14 14 13 13 13 12 12 12 12 11 11 11 11 10 10 10 9 9 9 8 8 8 7 7 7 6 6 6 6 5 5 5 4 4 4 3 3 3 2 2 2 2
14 13 13 13 12 12 12 12 11 11 11 11 10 10 10 9 9 9 9 8 8 7 7 7 6 6 6 6 5 5 4 4 4 3 3 3 3 2 2 1 1 1 1
13 13 12 12 12 11 11 11 11 10 10 10 10 9 9 9 9 8 8 8 7 7 7 6 6 6 5 5 4 4 4 3 3 3 2 2 2 2 1 1 1 0 0
12 12 12 11 11 11 11 10 10 10 10 9 9 9 8 8 8 8 7 7 7 6 6 6 5 5 4 4 4 4 3 3 3 2 2 2 1 1 1 0 0 -0 -0
11 11 11 11 10 10 10 10 9 9 9 8 8 8 8 7 7 7 7 6 6 6 5 5 5 4 4 4 3 3 3 2 2 2 1 1 1 0 0 0 -0 -1 -1
Wind_Speed
7 5 5 4 5 5 4 3 2 3 3 3 3 4 4 4 5 5 4 5 5 5 5 6 6 5 5 5 4 5 5 3 2 3 3 3 3 4 5 7 5 3 2
7 7 6 6 5 5 4 3 1 2 2 4 4 4 5 5 5 4 4 4 5 5 6 6 6 6 6 5 5 5 4 4 3 3 4 4 4 4 4 4 6 6 5
7 7 6 6 5 5 5 3 2 2 2 4 4 3 5 5 4 3 3 3 4 4 5 6 6 6 6 5 5 5 4 5 3 2 3 3 3 4 4 5 5 5 7
7 6 7 6 5 5 4 3 2 3 3 3 4 4 4 5 4 4 4 4 4 4 5 5 6 6 6 6 6 6 5 5 4 3 3 3 3 4 4 4 5 5 5
8 7 6 6 6 5 5 4 3 3 3 3 4 4 5 5 6 7 6 4 4 4 4 4 5 6 6 6 5 5 6 4 4 4 4 3 4 4 4 4 5 5 5
9 8 7 6 6 6 5 4 4 3 4 4 4 5 6 5 7 9 8 6 4 3 3 3 4 4 5 6 6 5 5 4 4 4 4 4 4 4 3 5 4 5 5
9 8 8 7 7 6 6 5 4 3 4 4 4 5 5 5 6 7 8 5 4 4 4 3 3 5 5 4 6 6 4 4 4 3 3 5 4 4 5 5 5 5 5
10 9 9 8 7 6 6 5 4 4 4 4 4 4 4 4 4 5 7 4 3 3 3 4 4 4 5 6 6 5 4 3 3 2 2 4 4 4 4 5 6 6 6
11 11 10 9 9 8 7 6 4 4 4 4 3 4 4 3 3 3 4 3 2 2 2 4 4 5 6 8 6 6 6 5 6 7 9 9 11 11 8 4 5 4 6
11 11 10 9 9 8 7 5 4 4 4 4 3 3 4 4 3 2 2 2 3 2 2 2 4 4 5 7 5 5 6 6 7 7 7 9 9 10 9 4 3 4 5
10 10 10 9 9 8 6 5 5 4 4 4 4 3 3 4 4 3 2 1 2 3 2 1 1 2 3 5 5 3 6 7 6 6 6 6 5 4 3 4 3 2 4
11 10 10 9 8 8 7 5 5 5 4 3 3 3 3 4 4 4 2 1 2 2 2 2 1 4 5 7 5 7 9 8 5 5 5 5 5 4 4 4 6 7 7
12 10 9 9 7 8 8 6 5 5 4 4 3 3 3 3 4 5 3 1 2 1 2 3 5 6 7 6 8 9 8 4 4 4 5 5 5 4 4 4 6 7 8
12 10 9 9 8 7 6 6 5 5 4 4 3 3 3 3 3 3 2 3 3 3 3 5 7 7 7 7 7 6 4 4 4 4 5 5 5 4 4 4 4 4 5
11 10 9 8 8 7 6 5 6 5 5 5 3 3 3 3 3 5 4 2 2 2 2 2 3 3 4 4 4 4 3 3 4 4 4 5 5 5 5 4 4 4 5
10 10 8 7 7 6 6 5 4 5 8 7 6 4 3 5 5 5 4 3 3 2 1 3 4 4 4 4 4 4 3 4 4 4 4 5 5 5 5 5 4 5 6
9 9 7 7 7 6 6 6 5 4 5 6 7 7 6 6 6 6 5 4 4 3 3 4 5 5 5 4 4 4 4 4 4 4 4 5 5 5 5 6 5 6 6
9 9 8 6 6 6 6 6 5 6 5 4 7 11 11 10 9 9 7 3 3 4 4 5 5 5 5 4 4 4 4 4 4 4 4 5 5 5 6 6 6 7 7
8 6 7 6 6 6 5 5 5 5 5 4 3 6 11 10 10 9 6 4 5 5 5 5 5 5 5 4 4 4 4 4 4 4 4 5 5 5 6 6 7 10 9
6 9 8 6 6 5 5 5 5 5 5 5 5 4 4 4 4 5 5 5 6 6 6 5 4 4 4 4 4 4 4 4 4 4 5 5 5 5 6 8 7 8 8
6 8 10 7 6 6 5 5 5 4 5 4 4 5 7 5 6 6 5 5 6 6 5 4 4 4 4 3 3 4 4 4 4 4 5 5 5 5 6 7 8 8 9
6 6 6 5 5 4 5 4 4 4 4 4 3 4 7 5 4 4 4 4 4 5 4 4 3 3 3 3 3 3 4 4 4 4 5 5 5 6 6 7 8 8 9
5 6 5 5 4 5 5 4 4 4 4 3 3 3 3 4 4 4 4 3 3 3 2 1 2 2 3 3 4 3 4 4 3 4 4 5 6 6 7 8 10 11 11
4 5 5 4 4 4 4 4 3 3 3 3 3 2 3 3 3 3 2 2 2 2 2 2 2 4 5 5 5 5 5 5 5 5 5 6 7 7 7 8 10 12 12
3 3 3 3 3 3 3 3 3 2 2 2 2 2 1 1 2 2 2 2 2 2 3 3 4 4 6 7 6 6 6 7 8 8 8 6 8 9 9 10 10 11 12
3 3 3 3 3 2 2 2 2 2 2 2 1 1 1 1 2 2 2 2 2 3 3 3 5 7 8 8 8 8 9 9 10 11 10 8 8 9 10 10 12 12 13
Wind_Direction
151 148 141 127 118 115 95 83 67 105 123 106 77 91 97 83 78 63 46 37 35 43 47 55 46 40 27 20 25 23 22 33 31 343 357 354 11 8 357 353 348 338 297
155 152 146 134 136 132 126 133 144 95 104 107 84 73 80 76 75 71 52 44 46 45 47 52 44 40 30 24 23 21 18 18 30 354 343 351 357 348 344 339 343 348 343
154 150 143 144 146 140 138 135 120 97 85 100 102 88 82 77 75 74 67 48 59 59 55 52 46 43 32 19 21 21 10 10 7 358 331 335 340 344 351 341 343 342 336
153 151 147 146 142 133 118 115 98 95 86 78 93 86 78 71 50 38 46 45 48 63 71 65 54 52 38 17 19 13 8 2 353 352 336 333 341 342 1 349 340 337 328
156 156 149 141 131 121 112 105 92 91 94 77 80 80 72 65 45 35 19 25 36 47 66 77 77 69 55 40 25 8 4 359 352 352 344 346 349 354 348 337 336 326 320
154 152 142 137 130 128 126 120 102 83 77 76 72 74 68 63 52 41 22 3 12 24 51 75 98 80 54 32 15 6 5 5 359 352 342 344 337 340 342 335 335 338 323
157 151 145 142 135 138 134 123 118 108 92 83 78 84 82 73 57 39 19 357 360 14 24 38 50 62 51 20 359 352 340 340 341 335 343 334 332 335 337 332 326 318 298
160 154 151 146 141 137 134 139 145 136 124 113 105 105 102 85 67 37 6 347 352 9 23 38 51 56 41 30 3 344 330 327 310 329 313 308 316 312 312 308 300 301 298
163 158 157 153 151 152 156 160 154 141 135 133 129 129 125 112 99 48 13 338 333 349 38 47 51 60 38 25 6 344 338 331 330 329 319 309 305 301 300 312 313 316 308
163 158 155 154 154 157 159 154 141 136 141 138 143 155 148 138 138 102 34 346 336 351 38 66 63 64 35 18 2 346 337 331 334 323 311 303 296 293 290 264 270 298 306
149 147 147 149 152 152 148 141 138 139 145 153 156 158 146 143 146 141 111 45 348 346 358 12 21 26 8 347 338 321 306 314 316 312 309 306 302 297 291 283 281 275 289
140 142 146 148 153 149 141 145 146 146 155 173 173 175 167 151 144 158 170 238 325 338 336 351 337 334 326 315 309 299 306 316 309 309 309 311 310 306 299 298 299 293 279
142 145 148 147 144 145 149 155 156 158 171 186 185 186 180 154 157 163 176 249 314 308 305 315 304 296 301 295 286 293 303 301 298 303 302 298 294 291 298 304 303 302 299
150 154 155 155 153 154 158 163 165 172 184 189 186 190 178 161 155 165 193 225 250 268 276 287 288 283 283 285 291 288 269 267 277 280 289 293 302 307 304 301 303 308 307
156 160 162 160 159 164 164 168 169 171 172 175 182 179 174 187 187 174 173 195 213 240 293 290 281 278 279 279 281 280 276 280 280 280 285 294 301 302 296 292 292 297 297
162 166 164 161 162 164 161 163 164 171 175 174 173 173 178 179 176 180 189 204 227 256 285 270 273 273 277 281 287 290 291 289 286 288 290 289 292 295 297 296 290 288 291
164 163 159 162 166 168 166 169 179 197 204 206 207 206 207 205 204 207 215 233 254 251 241 252 261 268 273 275 276 277 281 284 289 294 295 297 298 300 301 301 299 294 291
160 161 157 158 162 170 174 177 180 184 196 224 227 223 221 221 224 226 224 218 252 236 232 243 253 260 263 267 270 273 277 284 288 290 293 298 302 304 306 306 305 302 299
159 158 159 159 163 171 174 179 186 191 193 199 200 214 219 224 230 235 215 213 236 243 241 242 245 250 255 261 266 268 271 276 282 287 295 298 301 303 302 300 300 301 301
161 160 159 161 168 172 176 183 191 195 198 200 206 206 188 186 211 222 213 222 233 243 245 247 251 255 255 258 262 267 274 280 287 287 288 290 292 293 296 299 301 302 299
159 165 169 175 178 177 180 189 195 198 204 209 210 200 181 192 210 218 218 220 229 239 245 247 252 257 256 259 264 272 279 282 283 286 289 291 292 295 296 297 299 299 299
163 165 174 178 176 177 183 190 194 199 207 212 213 207 198 197 210 220 226 229 230 230 230 233 245 246 247 251 262 272 277 282 287 293 296 298 299 297 297 297 297 297 299
163 164 169 178 180 185 192 194 195 199 207 213 207 202 203 210 215 219 227 233 234 239 257 255 246 260 282 277 275 268 268 274 279 290 297 297 295 295 294 294 295 297 296
165 166 167 173 179 182 184 193 198 200 204 211 214 213 212 216 223 229 234 238 244 255 276 277 267 269 280 288 284 277 275 284 298 305 301 293 292 291 292 292 292 292 293
163 160 158 163 171 177 183 190 197 203 208 213 218 224 232 230 234 244 245 251 255 259 274 286 287 284 288 293 293 290 294 300 303 304 302 292 285 286 287 288 289 291 291
146 146 150 154 161 170 179 191 200 205 211 211 210 214 229 248 254 252 247 252 259 262 271 286 287 289 290 288 287 290 294 295 296 296 296 290 283 284 287 287 289 289 290
Height
1555 1557 1559 1560 1561 1563 1563 1564 1565 1565 1566 1566 1566 1566 1566 1566 1566 1565 1565 1565 1565 1565 1564 1564 1563 1563 1562 1562 1561 1561 1561 1560 1559 1559 1559 1558 1557 1555 1554 1553 1552 1552 1551
1554 1556 1558 1559 1561 1562 1563 1564 1565 1565 1566 1566 1567 1567 1567 1567 1567 1567 1566 1566 1566 1566 1565 1565 1564 1564 1563 1562 1562 1561 1561 1560 1560 1558 1558 1557 1556 1555 1553 1552 1552 1551 1550
1552 1554 1557 1558 1560 1561 1562 1563 1564 1565 1566 1567 1567 1567 1567 1567 1567 1567 1567 1567 1567 1567 1566 1565 1565 1564 1563 1563 1562 1561 1560 1560 1559 1558 1557 1556 1555 1554 1552 1551 1550 1549 1549
1550 1553 1555 1557 1558 1560 1561 1563 1564 1565 1566 1566 1567 1567 1567 1568 1568 1568 1568 1568 1568 1567 1567 1566 1565 1564 1563 1562 1562 1561 1560 1559 1558 1557 1556 1555 1554 1553 1551 1550 1548 1547 1546
1548 1551 1553 1555 1557 1559 1560 1561 1563 1564 1565 1565 1566 1567 1567 1567 1567 1568 1568 1568 1568 1567 1567 1566 1565 1564 1563 1562 1561 1560 1559 1558 1557 1556 1555 1554 1552 1551 1549 1548 1546 1545 1544
1546 1548 1551 1553 1555 1557 1558 1560 1561 1562 1563 1564 1565 1565 1566 1566 1567 1567 1567 1567 1567 1567 1566 1566 1565 1564 1563 1562 1561 1560 1559 1557 1556 1555 1553 1552 1551 1549 1548 1546 1545 1543 1541
1543 1546 1549 1551 1553 1555 1557 1558 1559 1561 1562 1563 1564 1564 1565 1565 1566 1566 1566 1566 1566 1566 1566 1565 1564 1563 1562 1561 1560 1558 1557 1556 1555 1554 1552 1551 1549 1547 1546 1544 1543 1541 1539
1541 1543 1546 1549 1551 1553 1555 1556 1558 1559 1560 1561 1562 1562 1563 1564 1564 1565 1565 1565 1565 1565 1565 1564 1563 1562 1561 1560 1558 1557 1556 1554 1553 1552 1551 1549 1547 1546 1544 1542 1540 1538 1536
1537 1540 1543 1546 1548 1550 1552 1554 1556 1557 1558 1559 1560 1561 1562 1562 1563 1563 1563 1563 1563 1563 1563 1563 1562 1561 1559 1558 1556 1555 1553 1552 1551 1549 1548 1546 1545 1543 1541 1539 1537 1535 1532
1534 1537 1541 1543 1546 1548 1550 1552 1554 1555 1557 1558 1559 1559 1560 1561 1561 1562 1562 1562 1562 1561 1561 1561 1560 1559 1558 1556 1554 1552 1551 1549 1548 1546 1545 1543 1541 1540 1538 1537 1535 1532 1529
1532 1535 1538 1541 1543 1546 1548 1550 1552 1553 1555 1556 1557 1558 1558 1559 1559 1560 1560 1560 1560 1559 1559 1558 1558 1557 1555 1554 1552 1550 1549 1547 1545 1543 1541 1540 1538 1536 1535 1533 1532 1530 1527
1529 1532 1535 1538 1541 1543 1545 1547 1549 1551 1552 1554 1555 1556 1557 1557 1558 1558 1558 1558 1558 1557 1557 1556 1555 1554 1553 1551 1550 1548 1546 1544 1542 1540 1538 1536 1535 1533 1531 1529 1527 1525 1523
1526 1529 1532 1536 1538 1541 1543 1545 1547 1548 1550 1551 1552 1554 1554 1555 1555 1555 1556 1556 1555 1555 1554 1553 1552 1551 1550 1548 1547 1545 1543 1541 1539 1537 1535 1533 1531 1529 1527 1525 1522 1520 1517
1523 1526 1530 1533 1535 1538 1540 1542 1544 1546 1547 1549 1550 1551 1552 1552 1552 1552 1553 1552 1552 1551 1551 1550 1549 1548 1547 1545 1544 1542 1540 1538 1536 1534 1531 1529 1527 1525 1523 1520 1517 1514 1511
1520 1524 1527 1530 1533 1535 1537 1539 1541 1543 1545 1546 1547 1548 1549 1549 1549 1550 1549 1549 1548 1548 1547 1546 1545 1544 1543 1542 1540 1538 1536 1534 1532 1530 1528 1525 1523 1520 1518 1516 1513 1510 1507
1517 1520 1523 1526 1529 1532 1534 1537 1538 1540 1542 1543 1544 1545 1545 1546 1547 1546 1546 1546 1545 1545 1544 1542 1541 1540 1539 1538 1536 1534 1533 1531 1529 1526 1524 1521 1518 1516 1513 1510 1508 1505 1502
1514 1517 1520 1523 1526 1528 1531 1533 1535 1537 1538 1539 1540 1541 1542 1543 1543 1543 1543 1542 1542 1541 1540 1539 1538 1537 1535 1534 1532 1531 1529 1527 1524 1522 1519 1517 1514 1511 1508 1505 1502 1500 1496
1510 1514 1516 1519 1522 1525 1527 1529 1531 1532 1534 1535 1536 1537 1538 1538 1539 1539 1538 1538 1537 1536 1535 1534 1533 1532 1531 1529 1528 1526 1524 1522 1520 1517 1515 1512 1509 1506 1503 1500 1497 1494 1491
1507 1510 1513 1515 1518 1521 1523 1525 1527 1529 1530 1531 1532 1533 1533 1534 1534 1534 1533 1532 1531 1531 1530 1529 1528 1527 1526 1524 1523 1521 1519 1517 1514 1512 1509 1507 1504 1501 1498 1495 1492 1489 1485
1504 1507 1510 1512 1515 1517 1519 1521 1523 1524 1525 1526 1527 1528 1528 1529 1528 1528 1528 1527 1526 1526 1525 1524 1523 1522 1521 1519 1517 1516 1513 1511 1509 1506 1504 1501 1498 1495 1492 1489 1486 1482 1478
1500 1503 1506 1509 1511 1513 1515 1517 1518 1520 1521 1521 1522 1523 1523 1523 1523 1522 1522 1521 1521 1520 1519 1518 1517 1516 1515 1514 1512 1510 1508 1505 1503 1500 1498 1495 1492 1489 1486 1483 1479 1476 1472
1497 1500 1502 1504 1507 1509 1511 1513 1514 1515 1516 1517 1517 1518 1518 1518 1517 1517 1517 1516 1515 1515 1514 1513 1512 1511 1510 1508 1506 1504 1502 1499 1497 1494 1491 1489 1486 1482 1479 1475 1472 1468 1465
1494 1496 1498 1501 1503 1505 1507 1508 1509 1510 1511 1512 1512 1513 1512 1512 1512 1511 1511 1510 1510 1509 1508 1507 1506 1505 1503 1502 1500 1498 1495 1493 1490 1488 1485 1482 1478 1475 1472 1468 1465 1461 1457
1490 1493 1495 1497 1499 1500 1502 1503 1504 1505 1506 1507 1507 1507 1507 1506 1506 1506 1505 1505 1504 1503 1502 1501 1500 1498 1497 1495 1494 1492 1489 1487 1484 1481 1478 1475 1471 1468 1464 1461 1457 1454 1450
1487 1489 1491 1493 1494 1496 1497 1498 1499 1500 1501 1501 1502 1502 1502 1501 1500 1500 1499 1499 1498 1497 1496 1495 1494 1492 1491 1489 1487 1485 1482 1480 1477 1474 1471 1467 1463 1460 1456 1453 1449 1445 1442
1484 1486 1487 1489 1490 1491 1493 1494 1494 1495 1496 1496 1496 1496 1496 1496 1495 1495 1494 1493 1492 1491 1490 1489 1487 1486 1484 1482 1480 1477 1475 1472 1469 1466 1463 1459 1455 1452 1448 1445 1441 1437 1434